STARLINK-31813, 60128

Orbit data source: Space-Track

STARLINK-31813, 60128 is a payload satellite owned by SpaceX/Seattle (US) in LEO that was launched on Mon, 24 Jun 2024 UTC via an FALCON 9 launch vehicle from the Air Force Western Test Range (AFWTR). Payload-class satellites include a variety of spacecraft equipped with specific instruments for various scientific and technological missions. These include communications satellites like Starlink; space stations such as the ISS; scientific satellites like the Hubble; Earth observation satellites from companies like Planet Labs, Umbra, and HawkEye 360; GPS; miniature CubeSats for education and research; and military/defense satellites.

Loading next visibility...
Identifier
60128, 2024-118R
Orbit
LEO
Country
Flag of USUS
Related business
Manufacturer
SpaceX/Seattle
Mission
Operational Commercial Communications
Bus & Motor
STARLINK V2M, Unknown motor
Mass
730 kg wet, ~700 kg dry
Launch date (UTC)
2024-06-24 (2 years ago)
Launch vehicle
FALCON 9
Launch site
Air Force Western Test Range (AFWTR)
Object type
Payload
Rocket body
Debris
Shape & HBR
Box + 2 Pan, 17.7 m
Radar Cross Section
33.884 m², Large (>1 m²)

Expand to show TLE details & history
Last TLE update: 16 hours ago

TLE from 16 hours ago
0 STARLINK-31813
1 60128U 24118R   26034.83914733  .00000564  00000-0  31164-4 0  9990
2 60128  53.1589 183.9575 0000859 116.7900 243.3189 15.30194199 90511
Epoch: 2026-02-03T20:08Z
TLE epoch observation values (Epoch: 2026-02-03T20:08:22.329Z)
Latitude
0.00001°
Longitude
107.85015°
Altitude
476.396 km
Speed
7.629 km/s
True Right ascension
12h 15m 49s
True Declination
0° 00' 00"
Sunlit
Object was in full shadow at epoch
Visualization orbit readout
Latitude
Unknown
Longitude
Unknown
Altitude
Unknown
Speed
Unknown
Apparent Right ascension
Unknown
Apparent Declination
Unknown
Sunlit
N/A
Visualization observer readout
Local Sidereal Time
13:49:41
Azimuth
Unknown
Elevation
Unknown
Doppler factor
Unknown
Orbital elements
Apogee altitude
476.078 km
Perigee altitude
474.9 km
Semi-major axis
6,853.626 km
Eccentricity
0.00009
Inclination
53.1589°
RAAN
183.9575°
Arg. of periapsis
116.79°
True anomaly
243.31011°
Mean anomaly
243.3189°
Eccentric anomaly
243.3145°
Mean motion
3.82527 °/min
Orbital period
94.11 mins
BSTAR
0.000031164
Loading maneuver chart data...
Computing Atmospheric mass density...
Loading historical data...
Loading historical data...
Loading historical data...
Loading historical data...
Loading historical data...
Loading historical data...
Loading historical data...

Documentation

Showing up to 5 results
|